Location: Beaurecueil
(43.5122°N, 5.5450°E)
Time: 01:17:29
(UTC+00:00)

CZ-2C R/B - Pass Details

Date: 18 September 2020
Orbit: 785 x 870 km, 98.2° (Epoch: 26 October)

Event Time Altitude Azimuth Distance (km) Brightness Sun altitude
Rises 19:17:39 0° 14° (NNE) 3,414 5.9 -17.8°
Reaches altitude 10° 19:20:01 10° 16° (NNE) 2,486 5.2 -18.2°
Maximum altitude 19:25:34 77° 102° (ESE) 886 2.6 -19.2°
Drops below altitude 10° 19:31:09 10° 189° (S) 2,504 5.0 -20.1°
Sets 19:33:32 0° 191° (S) 3,441 5.8 -20.5°
